UAL2149 KSAN-KSFO

Flight info

Callsign UAL2149
Flight time 1h 3m
Altitude 34000
Route PADRZ2 IKAYE RIZIN SPLNT STOKD SERFR SERFR4
Aircraft B739/M-SDE2E3FGHIRWXY/LB1

Departure

Time 2026-04-20 06:02
Airport San Diego International Airport (KSAN)

Arrival

Time 2026-04-20 07:05
Airport San Francisco International Airport (KSFO)
Time Latitude Longitude Altitude Speed Heading
2026-04-20 05:35 32.73323 -117.19608 26 ft 0 kts 199°
2026-04-20 05:53 32.73330 -117.19605 29 ft 4 kts 193°
2026-04-20 05:53 32.73356 -117.19597 30 ft 4 kts 189°
2026-04-20 05:54 32.73383 -117.19596 31 ft 4 kts 168°
2026-04-20 05:54 32.73405 -117.19608 31 ft 4 kts 126°
2026-04-20 05:54 32.73412 -117.19623 30 ft 1 kts 105°
2026-04-20 05:54 32.73412 -117.19625 29 ft 1 kts 105°
2026-04-20 05:57 32.73412 -117.19624 29 ft 0 kts 105°
2026-04-20 05:57 32.73409 -117.19610 26 ft 5 kts 105°
2026-04-20 05:57 32.73394 -117.19547 27 ft 11 kts 105°
2026-04-20 05:57 32.73366 -117.19431 27 ft 18 kts 107°
2026-04-20 05:58 32.73324 -117.19260 22 ft 24 kts 105°
2026-04-20 05:58 32.73280 -117.19077 26 ft 23 kts 107°
2026-04-20 05:58 32.73237 -117.18900 27 ft 22 kts 106°
2026-04-20 05:58 32.73195 -117.18728 25 ft 21 kts 106°
2026-04-20 05:59 32.73154 -117.18561 31 ft 21 kts 106°
2026-04-20 05:59 32.73115 -117.18399 33 ft 20 kts 106°
2026-04-20 05:59 32.73076 -117.18242 28 ft 19 kts 106°
2026-04-20 05:59 32.73040 -117.18090 27 ft 19 kts 105°
2026-04-20 06:00 32.73005 -117.17943 25 ft 18 kts 106°
2026-04-20 06:00 32.72968 -117.17801 25 ft 18 kts 109°
2026-04-20 06:00 32.72949 -117.17702 24 ft 11 kts 81°
2026-04-20 06:00 32.72976 -117.17618 28 ft 11 kts 46°
2026-04-20 06:01 32.73033 -117.17642 27 ft 11 kts 289°
2026-04-20 06:01 32.73057 -117.17735 26 ft 17 kts 286°
2026-04-20 06:01 32.73151 -117.18119 27 ft 81 kts 286°
2026-04-20 06:01 32.73362 -117.18988 28 ft 136 kts 286°
2026-04-20 06:02 32.73668 -117.20225 55 ft 173 kts 286°
2026-04-20 06:02 32.74008 -117.21573 678 ft 167 kts 286°
2026-04-20 06:02 32.74517 -117.22840 1161 ft 175 kts 308°
2026-04-20 06:02 32.75268 -117.23983 1745 ft 177 kts 306°
2026-04-20 06:03 32.76034 -117.25229 2038 ft 199 kts 305°
2026-04-20 06:03 32.76882 -117.26642 2242 ft 221 kts 305°
2026-04-20 06:03 32.77806 -117.28202 2538 ft 238 kts 304°
2026-04-20 06:03 32.78804 -117.29898 2796 ft 260 kts 304°
2026-04-20 06:04 32.79857 -117.31694 3425 ft 268 kts 304°
2026-04-20 06:04 32.80976 -117.33482 4170 ft 271 kts 306°
2026-04-20 06:04 32.82139 -117.35270 4896 ft 276 kts 306°
2026-04-20 06:04 32.83326 -117.37090 5567 ft 281 kts 306°
2026-04-20 06:05 32.84535 -117.38950 6235 ft 287 kts 305°
2026-04-20 06:05 32.85763 -117.40845 6866 ft 292 kts 305°
2026-04-20 06:05 32.87002 -117.42762 7586 ft 292 kts 305°
2026-04-20 06:05 32.88243 -117.44686 8309 ft 294 kts 305°
2026-04-20 06:06 32.89491 -117.46623 9015 ft 296 kts 305°
2026-04-20 06:06 32.90748 -117.48576 9736 ft 298 kts 306°
2026-04-20 06:06 32.92017 -117.50549 10312 ft 305 kts 306°
2026-04-20 06:06 32.93353 -117.52631 10466 ft 327 kts 306°
2026-04-20 06:07 32.94776 -117.54851 10628 ft 347 kts 306°
2026-04-20 06:07 32.96280 -117.57197 10777 ft 366 kts 306°
2026-04-20 06:07 32.97853 -117.59650 11105 ft 377 kts 306°
2026-04-20 06:07 32.99453 -117.62145 11645 ft 381 kts 306°
2026-04-20 06:08 33.01062 -117.64658 12255 ft 383 kts 306°
2026-04-20 06:08 33.02686 -117.67194 12834 ft 386 kts 306°
2026-04-20 06:08 33.04321 -117.69751 13416 ft 390 kts 306°
2026-04-20 06:08 33.05975 -117.72336 13992 ft 394 kts 306°
2026-04-20 06:09 33.07835 -117.74741 14550 ft 398 kts 316°
2026-04-20 06:09 33.09956 -117.76878 15171 ft 399 kts 320°
2026-04-20 06:09 33.12130 -117.78943 15793 ft 401 kts 320°
2026-04-20 06:09 33.14306 -117.81044 16385 ft 403 kts 319°
2026-04-20 06:10 33.16459 -117.83195 16956 ft 405 kts 318°
2026-04-20 06:10 33.18612 -117.85384 17528 ft 408 kts 318°
2026-04-20 06:10 33.20734 -117.87644 18084 ft 410 kts 315°
2026-04-20 06:10 33.22782 -117.90026 18570 ft 412 kts 313°
2026-04-20 06:11 33.24804 -117.92468 19053 ft 414 kts 313°
2026-04-20 06:11 33.26822 -117.94928 19561 ft 415 kts 313°
2026-04-20 06:11 33.28846 -117.97391 20057 ft 416 kts 313°
2026-04-20 06:11 33.30888 -117.99863 20541 ft 418 kts 313°
2026-04-20 06:12 33.32942 -118.02338 21029 ft 420 kts 313°
2026-04-20 06:12 33.35006 -118.04816 21508 ft 422 kts 314°
2026-04-20 06:12 33.37086 -118.07309 21984 ft 424 kts 314°
2026-04-20 06:12 33.39174 -118.09810 22408 ft 427 kts 313°
2026-04-20 06:13 33.41279 -118.12333 22828 ft 429 kts 313°
2026-04-20 06:13 33.43394 -118.14869 23273 ft 431 kts 313°
2026-04-20 06:13 33.45518 -118.17417 23692 ft 433 kts 313°
2026-04-20 06:13 33.47649 -118.19976 24069 ft 435 kts 313°
2026-04-20 06:14 33.49786 -118.22544 24459 ft 436 kts 313°
2026-04-20 06:14 33.51928 -118.25119 24858 ft 437 kts 313°
2026-04-20 06:14 33.54074 -118.27702 25237 ft 438 kts 313°
2026-04-20 06:14 33.56226 -118.30294 25619 ft 439 kts 313°
2026-04-20 06:15 33.58387 -118.32900 25960 ft 441 kts 313°
2026-04-20 06:15 33.60556 -118.35516 26309 ft 443 kts 313°
2026-04-20 06:15 33.62733 -118.38144 26662 ft 445 kts 313°
2026-04-20 06:15 33.64916 -118.40782 27000 ft 446 kts 313°
2026-04-20 06:16 33.67105 -118.43429 27335 ft 448 kts 313°
2026-04-20 06:16 33.69305 -118.46091 27666 ft 450 kts 313°
2026-04-20 06:16 33.71511 -118.48763 28007 ft 451 kts 313°
2026-04-20 06:16 33.73719 -118.51439 28415 ft 450 kts 313°
2026-04-20 06:17 33.75918 -118.54105 28956 ft 447 kts 313°
2026-04-20 06:17 33.78101 -118.56753 29541 ft 444 kts 313°
2026-04-20 06:17 33.80264 -118.59380 30131 ft 440 kts 313°
2026-04-20 06:17 33.82412 -118.61991 30557 ft 439 kts 313°
2026-04-20 06:18 33.84553 -118.64597 30941 ft 438 kts 313°
2026-04-20 06:18 33.86693 -118.67202 31320 ft 437 kts 313°
2026-04-20 06:18 33.88827 -118.69803 31652 ft 437 kts 313°
2026-04-20 06:18 33.90961 -118.72405 32013 ft 436 kts 313°
2026-04-20 06:19 33.93085 -118.74997 32438 ft 434 kts 312°
2026-04-20 06:19 33.95201 -118.77581 32847 ft 432 kts 312°
2026-04-20 06:19 33.97305 -118.80152 33225 ft 431 kts 312°
2026-04-20 06:19 33.99406 -118.82723 33582 ft 430 kts 312°
2026-04-20 06:20 34.01498 -118.85283 33942 ft 428 kts 312°
2026-04-20 06:20 34.03591 -118.87849 33981 ft 430 kts 312°
2026-04-20 06:20 34.07778 -118.92984 34010 ft 428 kts 312°
2026-04-20 06:21 34.11943 -118.98098 34022 ft 427 kts 312°
2026-04-20 06:21 34.15803 -119.03489 34031 ft 423 kts 301°
2026-04-20 06:22 34.18858 -119.09551 34036 ft 422 kts 299°
2026-04-20 06:22 34.21882 -119.15645 34017 ft 423 kts 300°
2026-04-20 06:23 34.24959 -119.21708 34033 ft 424 kts 300°
2026-04-20 06:23 34.28066 -119.27771 34014 ft 424 kts 300°
2026-04-20 06:24 34.30673 -119.32858 34007 ft 425 kts 300°
2026-04-20 06:24 34.33759 -119.38893 34005 ft 425 kts 299°
2026-04-20 06:25 34.36865 -119.44980 34017 ft 425 kts 299°
2026-04-20 06:25 34.39973 -119.51079 34028 ft 426 kts 300°
2026-04-20 06:26 34.43715 -119.56657 34023 ft 430 kts 311°
2026-04-20 06:26 34.47950 -119.61775 34010 ft 430 kts 311°
2026-04-20 06:27 34.52168 -119.66902 34017 ft 429 kts 311°
2026-04-20 06:27 34.56361 -119.72045 34010 ft 429 kts 311°
2026-04-20 06:28 34.60543 -119.77201 33995 ft 429 kts 311°
2026-04-20 06:28 34.64719 -119.82361 34020 ft 428 kts 311°
2026-04-20 06:29 34.68827 -119.87443 34002 ft 428 kts 310°
2026-04-20 06:29 34.72995 -119.92608 34021 ft 428 kts 310°
2026-04-20 06:30 34.77162 -119.97777 34013 ft 427 kts 310°
2026-04-20 06:30 34.81317 -120.02941 34029 ft 426 kts 310°
2026-04-20 06:31 34.85462 -120.08100 34024 ft 426 kts 310°
2026-04-20 06:31 34.89604 -120.13263 34028 ft 426 kts 310°
2026-04-20 06:32 34.93749 -120.18437 34044 ft 426 kts 310°
2026-04-20 06:32 34.97890 -120.23617 34036 ft 427 kts 310°
2026-04-20 06:33 35.02034 -120.28807 34039 ft 427 kts 309°
2026-04-20 06:33 35.06181 -120.34008 34042 ft 428 kts 309°
2026-04-20 06:34 35.10380 -120.39175 34041 ft 430 kts 312°
2026-04-20 06:35 35.17026 -120.46576 34038 ft 432 kts 313°
2026-04-20 06:35 35.21474 -120.51515 34036 ft 432 kts 313°
2026-04-20 06:36 35.25896 -120.56475 34052 ft 431 kts 312°
2026-04-20 06:36 35.30315 -120.61455 34043 ft 432 kts 312°
2026-04-20 06:37 35.34733 -120.66441 34032 ft 432 kts 312°
2026-04-20 06:37 35.39144 -120.71425 34045 ft 431 kts 312°
2026-04-20 06:38 35.43551 -120.76413 34028 ft 431 kts 312°
2026-04-20 06:38 35.47944 -120.81390 34050 ft 430 kts 312°
2026-04-20 06:39 35.52628 -120.86002 34060 ft 433 kts 317°
2026-04-20 06:39 35.57479 -120.90402 34078 ft 433 kts 317°
2026-04-20 06:40 35.62318 -120.94825 34047 ft 433 kts 317°
2026-04-20 06:40 35.67132 -120.99286 34050 ft 433 kts 316°
2026-04-20 06:41 35.72198 -121.04012 34037 ft 434 kts 316°
2026-04-20 06:41 35.76745 -121.08262 34046 ft 434 kts 316°
2026-04-20 06:42 35.81555 -121.12762 34042 ft 434 kts 316°
2026-04-20 06:42 35.86367 -121.17271 34038 ft 435 kts 316°
2026-04-20 06:43 35.91185 -121.21793 34019 ft 436 kts 316°
2026-04-20 06:43 35.93628 -121.24094 33274 ft 446 kts 316°
2026-04-20 06:43 35.96091 -121.26410 32568 ft 445 kts 316°
2026-04-20 06:43 35.98511 -121.28684 32063 ft 440 kts 316°
2026-04-20 06:44 36.00937 -121.30964 31473 ft 436 kts 316°
2026-04-20 06:44 36.03341 -121.33230 30938 ft 432 kts 316°
2026-04-20 06:44 36.05721 -121.35474 30399 ft 429 kts 316°
2026-04-20 06:44 36.08060 -121.37601 29873 ft 428 kts 319°
2026-04-20 06:45 36.10549 -121.39610 29291 ft 426 kts 321°
2026-04-20 06:45 36.13062 -121.41527 28766 ft 423 kts 322°
2026-04-20 06:45 36.15568 -121.43415 28231 ft 420 kts 322°
2026-04-20 06:45 36.18044 -121.45292 27722 ft 415 kts 322°
2026-04-20 06:46 36.20489 -121.47166 27221 ft 411 kts 321°
2026-04-20 06:46 36.22909 -121.49038 26730 ft 409 kts 321°
2026-04-20 06:46 36.25308 -121.50906 26227 ft 406 kts 321°
2026-04-20 06:46 36.27685 -121.52765 25771 ft 403 kts 321°
2026-04-20 06:47 36.30052 -121.54618 25280 ft 402 kts 321°
2026-04-20 06:47 36.32408 -121.56464 24799 ft 399 kts 321°
2026-04-20 06:47 36.34747 -121.58297 24341 ft 397 kts 321°
2026-04-20 06:47 36.37078 -121.60127 23876 ft 397 kts 321°
2026-04-20 06:48 36.39427 -121.61973 23363 ft 403 kts 321°
2026-04-20 06:48 36.41819 -121.63856 22841 ft 411 kts 321°
2026-04-20 06:48 36.44247 -121.65764 22315 ft 412 kts 321°
2026-04-20 06:48 36.46662 -121.67659 21814 ft 409 kts 322°
2026-04-20 06:49 36.49061 -121.69542 21322 ft 406 kts 322°
2026-04-20 06:49 36.51439 -121.71415 20881 ft 403 kts 322°
2026-04-20 06:49 36.53797 -121.73276 20419 ft 400 kts 322°
2026-04-20 06:49 36.56132 -121.75123 19951 ft 397 kts 322°
2026-04-20 06:50 36.58455 -121.76961 19478 ft 394 kts 322°
2026-04-20 06:50 36.60762 -121.78789 19016 ft 393 kts 322°
2026-04-20 06:50 36.63065 -121.80615 18554 ft 392 kts 322°
2026-04-20 06:50 36.65364 -121.82440 18037 ft 392 kts 322°
2026-04-20 06:51 36.67645 -121.84250 17543 ft 390 kts 322°
2026-04-20 06:51 36.69833 -121.85986 17088 ft 388 kts 322°
2026-04-20 06:51 36.72099 -121.87786 16638 ft 385 kts 322°
2026-04-20 06:51 36.74265 -121.89398 16195 ft 386 kts 332°
2026-04-20 06:52 36.76848 -121.90337 15792 ft 388 kts 346°
2026-04-20 06:52 36.79487 -121.91009 15335 ft 387 kts 346°
2026-04-20 06:52 36.82106 -121.91685 14879 ft 385 kts 346°
2026-04-20 06:52 36.84509 -121.92325 14465 ft 384 kts 345°
2026-04-20 06:53 36.87112 -121.93037 14017 ft 383 kts 345°
2026-04-20 06:53 36.89707 -121.93759 13536 ft 382 kts 345°
2026-04-20 06:53 36.92292 -121.94483 13040 ft 380 kts 345°
2026-04-20 06:53 36.94867 -121.95205 12580 ft 378 kts 345°
2026-04-20 06:54 36.97389 -121.96043 12182 ft 373 kts 341°
2026-04-20 06:54 36.99855 -121.97002 11721 ft 367 kts 340°
2026-04-20 06:54 37.02258 -121.97974 11282 ft 360 kts 340°
2026-04-20 06:54 37.04614 -121.98928 10851 ft 351 kts 340°
2026-04-20 06:55 37.06906 -121.99845 10516 ft 339 kts 340°
2026-04-20 06:55 37.09104 -122.00716 10386 ft 324 kts 340°
2026-04-20 06:55 37.11212 -122.01545 10235 ft 312 kts 340°
2026-04-20 06:55 37.13266 -122.02352 10117 ft 307 kts 340°
2026-04-20 06:56 37.15297 -122.03149 9953 ft 307 kts 340°
2026-04-20 06:56 37.17353 -122.03956 9614 ft 313 kts 340°
2026-04-20 06:56 37.19432 -122.04773 9265 ft 313 kts 341°
2026-04-20 06:56 37.21508 -122.05586 8930 ft 312 kts 340°
2026-04-20 06:57 37.23573 -122.06395 8567 ft 310 kts 340°
2026-04-20 06:57 37.25608 -122.07193 8262 ft 303 kts 340°
2026-04-20 06:57 37.27598 -122.07973 7921 ft 297 kts 340°
2026-04-20 06:57 37.29560 -122.08745 7552 ft 294 kts 340°
2026-04-20 06:58 37.31497 -122.09508 7162 ft 290 kts 340°
2026-04-20 06:58 37.33417 -122.10265 6804 ft 287 kts 340°
2026-04-20 06:58 37.35316 -122.11015 6426 ft 285 kts 340°
2026-04-20 06:58 37.37203 -122.11759 6044 ft 283 kts 340°
2026-04-20 06:59 37.39087 -122.12453 5683 ft 281 kts 342°
2026-04-20 06:59 37.40963 -122.13086 5333 ft 278 kts 342°
2026-04-20 06:59 37.42814 -122.13709 4994 ft 273 kts 342°
2026-04-20 06:59 37.44631 -122.14326 4675 ft 268 kts 342°
2026-04-20 07:00 37.46419 -122.14924 4353 ft 263 kts 342°
2026-04-20 07:00 37.48153 -122.15493 4059 ft 253 kts 342°
2026-04-20 07:00 37.49830 -122.16043 3726 ft 245 kts 342°
2026-04-20 07:00 37.51451 -122.16576 3441 ft 236 kts 342°
2026-04-20 07:01 37.52987 -122.17130 3186 ft 223 kts 332°
2026-04-20 07:01 37.54044 -122.18321 3005 ft 190 kts 288°
2026-04-20 07:01 37.54635 -122.19797 2851 ft 193 kts 294°
2026-04-20 07:01 37.55306 -122.21251 2610 ft 190 kts 294°
2026-04-20 07:02 37.55928 -122.22696 2366 ft 186 kts 292°
2026-04-20 07:02 37.56524 -122.24122 2114 ft 182 kts 293°
2026-04-20 07:02 37.57103 -122.25512 1884 ft 176 kts 293°
2026-04-20 07:02 37.57669 -122.26876 1651 ft 177 kts 294°
2026-04-20 07:03 37.58235 -122.28233 1390 ft 171 kts 295°
2026-04-20 07:03 37.58765 -122.29504 1196 ft 157 kts 295°
2026-04-20 07:03 37.59279 -122.30739 958 ft 157 kts 295°
2026-04-20 07:03 37.59782 -122.31944 731 ft 154 kts 295°
2026-04-20 07:04 37.60280 -122.33144 510 ft 155 kts 294°
2026-04-20 07:04 37.60785 -122.34340 306 ft 153 kts 295°
2026-04-20 07:04 37.61286 -122.35525 87 ft 154 kts 293°
2026-04-20 07:04 37.61760 -122.36695 19 ft 136 kts 298°
2026-04-20 07:05 37.62104 -122.37502 15 ft 69 kts 298°
2026-04-20 07:05 37.62305 -122.37982 20 ft 45 kts 298°
2026-04-20 07:05 37.62316 -122.38224 21 ft 24 kts 232°
2026-04-20 07:05 37.62170 -122.38306 19 ft 23 kts 196°
2026-04-20 07:06 37.62051 -122.38346 21 ft 14 kts 180°
2026-04-20 07:06 37.61991 -122.38264 22 ft 13 kts 118°
2026-04-20 07:06 37.61950 -122.38164 21 ft 13 kts 118°
2026-04-20 07:06 37.61909 -122.38067 22 ft 12 kts 118°
2026-04-20 07:07 37.61875 -122.38010 20 ft 12 kts 136°
2026-04-20 07:07 37.61803 -122.37959 18 ft 12 kts 161°
2026-04-20 07:07 37.61690 -122.37955 15 ft 13 kts 193°
2026-04-20 07:07 37.61605 -122.38003 13 ft 14 kts 207°
2026-04-20 07:08 37.61587 -122.38098 13 ft 12 kts 293°
2026-04-20 07:08 37.61603 -122.38131 13 ft 5 kts 325°
2026-04-20 07:08 37.61645 -122.38127 16 ft 2 kts
2026-04-20 07:08 37.61654 -122.38127 15 ft 0 kts